Weather History for Belize, Belize

Change the Weather History Date:

Tuesday, July 24, 2012

  Actual Average Record
Temperature  
Mean Temperature 81 °F -  
Max Temperature 88 °F 89 °F 91 °F (2004)
Min Temperature 74 °F 76 °F 74 °F (2012)
Cooling Degree Days 16    
Growing Degree Days 31 (Base 50)    
Moisture  
Dew Point 77 °F    
Average Humidity 83    
Maximum Humidity 100    
Minimum Humidity 65    
Precipitation  
Precipitation 0.02 in 0.26 in - ()
Sea Level Pressure  
Sea Level Pressure 30.00 in    
Wind  
Wind Speed 7 mph ()    
Max Wind Speed 12 mph    
Max Gust Speed -    
Visibility 7.9 miles    
Events Rain , Thunderstorm    
Averages and records for this station are not official NWS values.
T = Trace of Precipitation, MM = Missing Value Source: Averaged Metar Reports

Daily Weather History Graph

Daily Weather History Graph

Search for Another Location

Airport:

Trip Planner

Search our weather history database for the weather conditions in past years. The results will help you decide how hot, cold, wet, or windy it might be!

Date:

Astronomy

Jul. 24, 2012 Rise Set
Actual Time 5:29 AM CST 6:29 PM CST
Civil Twilight 5:06 AM CST 6:52 PM CST
Nautical Twilight 4:39 AM CST 7:20 PM CST
Astronomical Twilight 4:10 AM CST 7:48 PM CST
Moon 10:24 AM CST (7/24) 10:24 PM CST (7/24)
Length of Visible Light 13h 46m
Length of Day
12h 59m
Waxing Crescent, 32% of the Moon is Illuminated
Jul 24
Waxing Crescent
Jul 26
First Quarter
Aug 1
Full
Aug 9
Last Quarter
Aug 17
New

Hourly Weather History & Observations

Time (CST) Temp. Heat Index Dew Point Humidity Pressure Visibility Wind Dir Wind Speed Gust Speed Precip Events Conditions
12:00 AM 82 °F - 76 °F 78% 30.06 in 12 mi East 6.9 mph - -  
3:00 AM 82 °F - 78 °F 85% 29.99 in 12 mi NE 4.6 mph - -   Partly Cloudy
5:00 AM 80.6 °F 88.1 °F 78.8 °F 94% 30.00 in 6.2 mi ENE 3.5 mph - N/A Thunderstorm Thunderstorm
6:00 AM 75 °F - 74 °F 96% 30.03 in 4 mi ENE 10.4 mph - - Rain , Thunderstorm Thunderstorms and Rain
6:00 AM 75.2 °F - 73.4 °F 94% 30.03 in 4.3 mi ENE 10.4 mph - N/A Rain , Thunderstorm Thunderstorms and Rain
7:00 AM 75.2 °F - 75.2 °F 100% 30.05 in 6.2 mi NE 8.1 mph - N/A Rain , Thunderstorm Thunderstorms and Rain
8:00 AM 78.8 °F - 77.0 °F 94% 30.05 in 6.2 mi ENE 5.8 mph - N/A Rain Rain
9:00 AM 79 °F - 78 °F 95% 30.04 in 11 mi NE 3.5 mph - - Rain Light Rain
9:00 AM 78.8 °F - 78.8 °F 100% 30.04 in 6.2 mi NE 3.5 mph - N/A   Mostly Cloudy
11:00 AM 84.2 °F 96.1 °F 78.8 °F 84% 30.03 in 6.2 mi East 11.5 mph - N/A   Mostly Cloudy
12:00 PM 87 °F - 78 °F 68% 30.01 in 12 mi East 11.5 mph - -  
12:00 PM 86.0 °F 96.9 °F 77.0 °F 74% 30.00 in 6.2 mi East 11.5 mph - N/A   Mostly Cloudy
1:00 PM 87.8 °F 102.5 °F 78.8 °F 75% 29.99 in 6.2 mi East 10.4 mph - N/A   Mostly Cloudy
2:00 PM 87.8 °F 102.5 °F 78.8 °F 75% 29.98 in 6.2 mi East 11.5 mph - N/A   Mostly Cloudy
3:00 PM 88 °F - 78 °F 65% 29.98 in 12 mi East 10.4 mph - -   Partly Cloudy
3:00 PM 87.8 °F 99.7 °F 77.0 °F 70% 29.97 in 6.2 mi East 10.4 mph - N/A   Mostly Cloudy
4:00 PM 87.8 °F 102.5 °F 78.8 °F 75% 29.96 in 6.2 mi ENE 10.4 mph - N/A   Mostly Cloudy
5:00 PM 86.0 °F 99.3 °F 78.8 °F 79% 29.96 in 6.2 mi East 10.4 mph - N/A   Mostly Cloudy
6:00 PM 85 °F - 78 °F 74% 29.97 in 12 mi East 9.2 mph - -  
6:00 PM 84.2 °F 96.1 °F 78.8 °F 84% 29.95 in 6.2 mi East 9.2 mph - N/A   Mostly Cloudy
9:00 PM 84 °F - 77 °F 74% 30.01 in 12 mi East 11.5 mph - -   Partly Cloudy